Aérodrome :
LOGIN :

S'inscrire | Disclaimer

   EN    FR    IT 

 










Légende :    VFR   VFR Marginal   IFR   IFR Intensif   IFR Très Intensif
Visi : 
Plafond : 
>= 8 km
>= 3000ft
5 à 8 km
1000 à 3000 ft
1500m à 5 km
500 à 1000 ft
800 à 1500m
200 à 500 ft
< 800m
< 200 ft
Symboles :   Orages  Brouillard  Fortes neiges  Fortes précipitations  Vent > 20 kt
SIGMETs :   Divers  Orages  Givrage  Turbulence  Onde Orograph.  Cendres Volcan.







- Altitude de l'aérodrome : 295 ft
- Code IATA : BWE


EDVE - Braunschweig

DERNIER METAR :
  • 251950Z 27013G23KT 7000 FEW015 BKN026 OVC039 09/05 Q1011 RERA

METARs EXPIRÉS :
  • 251920Z 31003KT 9999 -RA NSC 09/05 Q1011
  • 251820Z 29007KT 260V330 CAVOK 11/05 Q1010
  • 251750Z 28007KT 260V320 9999 FEW026 BKN085 12/06 Q1010
  • 251720Z 29011KT 260V320 9999 FEW027 SCT075 12/06 Q1010

TAF TAF EDVE
Valide du 25 à 18h jusqu'au 25 à 21h UTC


251700Z 2518/2521 29010KT 9999 SCT030
PROB30
TEMPO 2519/2521 25015G25KT 4500 SHRA BKN015CB
Pas de NOTAMs connus pour ce terrain.



MET'MAP, la Météo Aéronautique d'un coup d'oeil ! - Copyright ORBIFLY Décembre 2007 - Disclaimer

ORBIFLY MET'MAP TEAM :

Programmation & Développement : Alexandra Zaïnal
Conception & Développement : Baudouin d'Aumeries
Co-Programmation & Développement : Marc-Olivier Méhu
Soutien technique & logistique : Manuel Goepfert

Contact : metmap@orbifly.com




SOURCES & CREDITS :

   NOAA